Powrót do katalogu

STARLINK-33596

AktywnyŁącznośćVLEO
NORAD 62758·PAYLOAD·🇺🇸 United States

Wystrzelony Jan 21, 2025 z Vandenberg Space Force Base

Loading…

Następne Przeloty (najbliższe 24 godziny)

TLE

ŚwieżeSource: CelesTrak SupGP

Epoka: Sep 14, 2026, 22:52 UTC

1 62758C 25015A   26257.95326389 -.00050474  00000+0 -16229-2 0  2578
2 62758  53.1581 162.1010 0001202  68.7697  11.0898 15.31732152    10

Śledź STARLINK-33596 w czasie rzeczywistym z AllMySat

Download on the App Store